Location: Alvediston
(51.0078°N, 2.0364°W)
Time: 08:57:59
(UTC+00:00)

Resurs 1-3 - Pass Details

Date: 27 February 2020
Orbit: 630 x 632 km, 97.9° (Epoch: 03 April)

Event Time Altitude Azimuth Distance (km) Brightness Sun altitude
Exits shadow 20:21:59 81° 276° (W) 648 3.6 -25.2°
Drops below altitude 10° 20:26:20 10° 344° (NNW) 2,027 6.6 -25.9°
Sets 20:28:32 0° 346° (NNW) 2,940 7.5 -26.2°
